Regional Weather Roundup
Issued by NWS Grand Forks, ND

Home | Current Version | Previous Version | Graphics & Text | Print | Product List | Glossary On
Versions: 1 2 3 4 5 6 7 8 9 10 11 12 13 14 15 16 17 18 19 20 21 22 23 24 25 26 27 28 29 30 31 32 33 34 35 36 37 38 39 40 41 42 43 44 45 46 47 48 49 50
000
ASUS43 KFGF 262110
RWRFGF
PRAIRIE TO PINES  WEATHER ROUNDUP
NATIONAL WEATHER SERVICE EASTERN NORTH DAKOTA/GRAND FORKS ND
400 PM CDT TUE MAY 26 2015

 **SATELLITE DATA USED TO AUGMENT SKY COVER AT AUTOMATED STATIONS**
 *****  WEATHER ACROSS EASTERN NORTH DAKOTA  *****

CITY           SKY/WX    TMP DP  RH WIND       PRES   REMARKS
GRAND FORKS    MOSUNNY   84  43  23 N10       29.73F
GRAND FRKS AFB MOSUNNY   82  45  26 VRB3      29.75S
GRAND FRKS NWS   N/A     81 N/A N/A VRB9        N/A
DEVILS LAKE    MOSUNNY   81  41  24 W17       29.79S
FARGO          PTSUNNY   75  56  51 S7        29.78F
WAHPETON ARPT  CLOUDY    72  50  46 SW3       29.81F
$$

 ***** WEATHER ACROSS CENTRAL AND WESTERN NORTH DAKOTA  *****

CITY           SKY/WX    TMP DP  RH WIND       PRES   REMARKS
BISMARCK       SUNNY     82  44  26 NW6       29.87F
MINOT          PTSUNNY   78  41  26 SW8       29.83F
JAMESTOWN      PTSUNNY   75  43  31 NW18G24   29.80S
MINOT AFB      MOSUNNY   82  40  22 N8        29.82S
GARRISON         N/A     68  51  54 E12       29.88R
WILLISTON      SUNNY     80  46  30 S9        29.88F
DICKINSON      PTSUNNY   74  43  32 S12       29.90F
HETTINGER      CLOUDY    72  47  40 SW10      29.95S
$$

 *****  OTHER AIRPORT OBSERVATIONS IN OUR AREA  *****

CITY           SKY/WX    TMP DP  RH WIND       PRES   REMARKS
WALHALLA         N/A    N/A N/A N/A MISG        N/A
GRAFTON AIRPOR FAIR      82  46  28 NE8G16    29.74F
VALLEY CITY AR FAIR      81  46  30 N6        29.78F
CANDO          FAIR      84  36  17 NW10      29.79S
CAVALIER APRT  FAIR      84  41  21 NE8       29.73F
GWINNER        NOT AVBL
ROLLA            N/A     82  32  16 NW15      29.82S
 ***** THE ABOVE OBSERVATIONS ARE NON NWS ARE NOT QUALITY
       CONTROLLED AND MAY MIS-REPORT RAIN FOR SNOW...
$$

  *****  WEATHER ACROSS NORTHERN MINNESOTA  *****

CITY           SKY/WX    TMP DP  RH WIND       PRES   REMARKS
FLAG ISLAND    SUNNY     70  52  52 SE6       29.75S
WARROAD        MOSUNNY   79  54  41 S5        29.75F
ROSEAU         MOSUNNY   79  54  41 NW8       29.75S
HALLOCK        SUNNY     82  41  23 W5        29.73F
THF RVR FALLS  MOSUNNY   79  48  34 SW8       29.77F
BAUDETTE       PTSUNNY   77  50  38 VRB3      29.76F
WASKISH        PTSUNNY   72  55  56 CALM      29.79F
CROOKSTON      SUNNY     81  52  36 SE7       29.75F
STEPHEN NDAWN    N/A     84  48  28 N5          N/A
GREENBUSH NDAW   N/A     79  48  34 SW6         N/A
$$
  *****  WEATHER ACROSS CENTRAL AND WEST MINNESOTA  *****

CITY           SKY/WX    TMP DP  RH WIND       PRES   REMARKS
FOSSTON        PTSUNNY   75  52  43 SW9       29.80S
BEMIDJI        PTSUNNY   72  52  50 CALM      29.80F
PARK RAPIDS    CLOUDY    73  48  41 CALM      29.80F
ELBOW LAKE     FAIR      71  54  55 N6        29.81F
WADENA         CLOUDY    72  52  49 CALM      29.81S
DETROIT LAKES  CLOUDY    72  52  49 SW3       29.82F
MOORHEAD       PTSUNNY   73  55  53 S9        29.80S
FERGUS FALLS   CLOUDY    72  54  53 CALM      29.81S
MORRIS MN      CLOUDY    72  54  53 N7        29.81S
STAPLES        CLOUDY    70  48  46 CALM      29.81R
$$
  *****  WEATHER ELSEWHERE ACROSS MINNESOTA  *****

CITY           SKY/WX    TMP DP  RH WIND       PRES   REMARKS
DULUTH         CLOUDY    64  52  64 NE15G21   29.80F
INTRNTL FALLS  PTSUNNY   75  50  41 VRB6      29.77F
ELY            NOT AVBL
CLOQUET        CLOUDY    63  52  67 NE9       29.81S
WHEATON        CLOUDY    70  54  56 N3        29.83F
BRAINERD       CLOUDY    67  53  61 NE8       29.81S
HIBBING        CLOUDY    70  49  47 E8        29.80S
ALEXANDRIA     CLOUDY    69  52  54 NE12      29.82S
SAINT CLOUD    CLOUDY    61  55  81 E5        29.80S
MINNEAPOLIS    RAIN      58  57  97 NW9       29.78S FOG
$$

  *****  WEATHER ACROSS SOUTH DAKOTA  *****

CITY           SKY/WX    TMP DP  RH WIND       PRES   REMARKS
SIOUX FALLS    CLOUDY    66  56  70 N9        29.83S
BROOKINGS      CLOUDY    66  52  59 N14       29.84S
WATERTOWN      CLOUDY    70  52  52 N7        29.84F
HURON          MOSUNNY   77  50  38 NE12      29.84S
SISSETON         N/A     75  52  44 CALM      29.81F
ABERDEEN       CLOUDY    78  53  41 N6        29.82F
MITCHELL       PTSUNNY   74  55  51 E6        29.86S
PIERRE         PTSUNNY   76  51  41 W12       29.88F
MOBRIDGE       SUNNY     80  49  33 VRB6      29.86F
RAPID CITY     PTSUNNY   66  50  56 S7        29.98R
$$

  *****  SOME WEATHER IN NEARBY STATES *****

CITY           SKY/WX    TMP DP  RH WIND       PRES   REMARKS
GLASGOW MT     MOSUNNY   74  43  32 S7        29.87F
GREAT FALLS MT MOSUNNY   63  49  60 NE6       29.96F
CHEYENNE WY    PTSUNNY   61  45  55 SE8       30.05F
SCOTTSBLUFF NE MOSUNNY   69  52  54 SE13G21   29.98F
OMAHA NE       CLOUDY    66  60  81 NW14      29.84R
DES MOINES IA  PTSUNNY   70  61  73 SW13      29.79F
DAVENPORT IA   PTSUNNY   72  60  66 W24G36    29.77R
CHICAGO IL     PTSUNNY   73  63  70 S17       29.76F
EAU CLAIRE WI  CLOUDY    65  59  81 N8        29.70F
LA CROSSE WI   LGT RAIN  66  62  87 CALM      29.62F FOG
$$

  *****  SOME NATIONAL WEATHER *****

CITY           SKY/WX    TMP DP  RH WIND       PRES   REMARKS
LA GUARDIA NY  PTSUNNY   82  60  47 S14       30.14S
RALEIGH NC     PTSUNNY   86  67  52 S7        30.20F
ATLANTA GA     TSTM      68  64  88 SW10G20   30.23R VSB 1/2
NEW ORLEANS LA PTSUNNY   86  68  54 SE9       30.07F
OKLAHOMA CITY  CLOUDY    76  63  64 S15G23    29.95F
ALBUQUERQUE NM PTSUNNY   72  40  31 VRB5      30.09F
SALT LAKE CITY LGT RAIN  59  51  75 W7        30.02F
LOS ANGELES CA PTSUNNY   65  56  72 W15       30.00F
BOISE ID       MOSUNNY   75  43  31 VRB7      29.90F
SEATTLE WA     MOSUNNY   66  50  56 VRB7      30.05F
$$

*** WEATHER ACROSS MANITOBA...SASKATCHEWAN AND ONTARIO ***
                ***ONTARIO***

CITY           SKY/WX    TMP DP  RH WIND       PRES   REMARKS
GERALDTON      PTSUNNY   70  52  52 VRB3      29.80F
THUNDER BAY    CLOUDY    70  54  56 SE10      29.80F
SIOUX LOOKOUT  CLOUDY    77  50  38 SW9       29.76S
TORONTO        PTSUNNY   84  63  48 S8        29.98F
BIG TROUT LK   SUNNY     59  36  41 NE9       29.77S
PICKLE LAKE    PTSUNNY   79  37  22 S13G18    29.70F
DRYDEN         SUNNY     77  48  36 W10       29.77S
KENORA         PTSUNNY   82  54  36 W6        29.77F
$$
                *** MANITOBA***

CITY           SKY/WX    TMP DP  RH WIND       PRES   REMARKS
BRANDON        PTSUNNY   84  41  21 W20G25    29.77F
DAUPHIN        MOSUNNY   79  46  31 E12G20    29.75S
ISLAND LAKE    NOT AVBL
PILOT MOUND      N/A     79  36  21 N18G25      N/A
THE PAS        PTSUNNY   50  37  62 N12       29.91R
THOMPSON       PTSUNNY   43  28  56 N10G18    29.96R
WINNIPEG       MOSUNNY   84  39  20 NW16      29.73F
LYNN LAKE      SUNNY     52  19  28 NE12      29.95F
CHURCHILL      PTSUNNY   32  23  69 NE10      30.03S WCI  24
GILLAM         MOSUNNY   41  25  52 NE7       29.97S
$$
                ***SASKATCHEWAN***

CITY           SKY/WX    TMP DP  RH WIND       PRES   REMARKS
ESTEVAN        CLOUDY    81  41  24 SW13G22   29.85S
KINDERSLEY     PTSUNNY   79  34  19 NW10G20   29.87S
LLOYDMINSTER   MOSUNNY   75  43  31 N13G20    29.92S
PRINCE ALBERT  MOSUNNY   73  46  38 NE13G26   29.86R
REGINA         PTSUNNY   79  39  24 W18       29.83F
YORKTON        SUNNY     79  41  25 NW14G23   29.79S
N. BATTLEFORD  MOSUNNY   79  45  29 N12G30    29.88S
LA RONGE       CLOUDY    50  39  66 NW8G17    29.99R
SASKATOON      LGT RAIN  81  41  24 NW6       29.84S
SWIFT CURRENT  MOSUNNY   77  36  22 VRB3      29.89S
$$
NOTE: THESE ARE AUTOMATED STATIONS WITH LIMITED QUALITY CONTROL
      "FAIR" INDICATES FEW OR NO CLOUDS BELOW 12,000 FEET WITH NO
      SIGNIFICANT WEATHER AND/OR OBSTRUCTIONS TO VISIBILITY.
      SKY/WX - SKY CONDITION AND SIGNIFICANT WEATHER.
      TMP - AIR TEMPERATURE.    DP   - DEWPOINT TEMPERATURE.
      RH  - RELATIVE HUMIDITY.  PRES - PRESSURE.
      HX  - HEAT INDEX.         WCI  - WIND CHILL INDEX.
$



USA.gov is the U.S. government's official web portal to all federal, state and local government web resources and services.